Year,Month,Day,Hour,Minute,Value (Times are PST for windgust in km/hr)
2015,12,12,00,00,8.10
2015,12,12,00,01,8.10
2015,12,12,00,02,6.40
2015,12,12,00,03,6.40
2015,12,12,00,04,6.40
2015,12,12,00,05,4.80
2015,12,12,00,06,3.20
2015,12,12,00,07,3.20
2015,12,12,00,08,4.80
2015,12,12,00,09,6.40
2015,12,12,00,10,4.80
2015,12,12,00,11,8.10
2015,12,12,00,12,8.10
2015,12,12,00,13,8.10
2015,12,12,00,14,8.10
2015,12,12,00,15,6.40
2015,12,12,00,16,4.80
2015,12,12,00,17,6.40
2015,12,12,00,18,8.10
2015,12,12,00,19,6.40
2015,12,12,00,20,8.10
2015,12,12,00,21,6.40
2015,12,12,00,22,8.10
2015,12,12,00,23,8.10
2015,12,12,00,24,6.40
2015,12,12,00,25,8.10
2015,12,12,00,26,8.10
2015,12,12,00,27,8.10
2015,12,12,00,28,8.10
2015,12,12,00,29,9.60
2015,12,12,00,30,8.10
2015,12,12,00,31,8.10
2015,12,12,00,32,6.40
2015,12,12,00,33,4.80
2015,12,12,00,34,9.60
2015,12,12,00,35,8.10
2015,12,12,00,36,8.10
2015,12,12,00,37,8.10
2015,12,12,00,38,8.10
2015,12,12,00,39,9.60
2015,12,12,00,40,9.60
2015,12,12,00,41,9.60
2015,12,12,00,42,11.30
2015,12,12,00,43,9.60
2015,12,12,00,44,9.60
2015,12,12,00,45,8.10
2015,12,12,00,46,8.10
2015,12,12,00,47,6.40
2015,12,12,00,48,3.20
2015,12,12,00,49,3.20
2015,12,12,00,50,3.20
2015,12,12,00,51,3.20
2015,12,12,00,52,4.80
2015,12,12,00,53,3.20
2015,12,12,00,54,3.20
2015,12,12,00,57,3.20
2015,12,12,00,58,3.20
2015,12,12,01,04,3.20
2015,12,12,01,05,1.60
2015,12,12,01,08,4.80
2015,12,12,01,10,4.80
2015,12,12,01,11,6.40
2015,12,12,01,12,8.10
2015,12,12,01,13,14.50
2015,12,12,01,14,14.50
2015,12,12,01,15,14.50
2015,12,12,01,16,17.70
2015,12,12,01,17,11.30
2015,12,12,01,18,19.30
2015,12,12,01,19,17.70
2015,12,12,01,20,16.10
2015,12,12,01,21,16.10
2015,12,12,01,22,16.10
2015,12,12,01,23,16.10
2015,12,12,01,24,16.10
2015,12,12,01,25,20.90
2015,12,12,01,26,17.70
2015,12,12,01,27,19.30
2015,12,12,01,28,14.50
2015,12,12,01,29,14.50
2015,12,12,01,30,14.50
2015,12,12,01,31,11.30
2015,12,12,01,32,14.50
2015,12,12,01,33,9.60
2015,12,12,01,34,9.60
2015,12,12,01,35,9.60
2015,12,12,01,36,8.10
2015,12,12,01,37,8.10
2015,12,12,01,38,8.10
2015,12,12,01,39,11.30
2015,12,12,01,40,12.90
2015,12,12,01,41,12.90
2015,12,12,01,42,11.30
2015,12,12,01,43,11.30
2015,12,12,01,44,9.60
2015,12,12,01,45,8.10
2015,12,12,01,46,8.10
2015,12,12,01,47,8.10
2015,12,12,01,48,8.10
2015,12,12,01,49,6.40
2015,12,12,01,50,4.80
2015,12,12,01,51,4.80
2015,12,12,01,52,4.80
2015,12,12,01,53,6.40
2015,12,12,01,54,4.80
2015,12,12,01,56,3.20
2015,12,12,01,57,1.60
2015,12,12,01,58,4.80
2015,12,12,01,59,8.10
2015,12,12,02,00,9.60
2015,12,12,02,01,9.60
2015,12,12,02,02,9.60
2015,12,12,02,03,8.10
2015,12,12,02,04,4.80
2015,12,12,02,05,6.40
2015,12,12,02,06,8.10
2015,12,12,02,07,8.10
2015,12,12,02,08,8.10
2015,12,12,02,09,8.10
2015,12,12,02,10,11.30
2015,12,12,02,11,11.30
2015,12,12,02,12,11.30
2015,12,12,02,13,9.60
2015,12,12,02,14,8.10
2015,12,12,02,15,11.30
2015,12,12,02,16,8.10
2015,12,12,02,17,9.60
2015,12,12,02,18,16.10
2015,12,12,02,19,9.60
2015,12,12,02,20,8.10
2015,12,12,02,21,12.90
2015,12,12,02,22,16.10
2015,12,12,02,23,14.50
2015,12,12,02,24,16.10
2015,12,12,02,25,16.10
2015,12,12,02,26,16.10
2015,12,12,02,27,16.10
2015,12,12,02,28,14.50
2015,12,12,02,29,9.60
2015,12,12,02,30,19.30
2015,12,12,02,31,17.70
2015,12,12,02,32,14.50
2015,12,12,02,33,16.10
2015,12,12,02,34,19.30
2015,12,12,02,35,9.60
2015,12,12,02,36,11.30
2015,12,12,02,37,19.30
2015,12,12,02,38,20.90
2015,12,12,02,39,17.70
2015,12,12,02,40,22.50
2015,12,12,02,41,24.20
2015,12,12,02,42,24.20
2015,12,12,02,43,24.20
2015,12,12,02,44,16.10
2015,12,12,02,45,11.30
2015,12,12,02,46,16.10
2015,12,12,02,47,11.30
2015,12,12,02,48,9.60
2015,12,12,02,49,22.50
2015,12,12,02,50,22.50
2015,12,12,02,51,22.50
2015,12,12,02,52,19.30
2015,12,12,02,53,19.30
2015,12,12,02,54,16.10
2015,12,12,02,55,22.50
2015,12,12,02,56,19.30
2015,12,12,02,57,19.30
2015,12,12,02,58,17.70
2015,12,12,02,59,14.50
2015,12,12,03,00,17.70
2015,12,12,03,01,19.30
2015,12,12,03,02,19.30
2015,12,12,03,03,17.70
2015,12,12,03,04,19.30
2015,12,12,03,05,16.10
2015,12,12,03,06,16.10
2015,12,12,03,07,14.50
2015,12,12,03,08,11.30
2015,12,12,03,09,11.30
2015,12,12,03,10,16.10
2015,12,12,03,11,17.70
2015,12,12,03,12,22.50
2015,12,12,03,13,14.50
2015,12,12,03,14,24.20
2015,12,12,03,15,20.90
2015,12,12,03,16,27.40
2015,12,12,03,17,24.20
2015,12,12,03,18,20.90
2015,12,12,03,19,29.00
2015,12,12,03,20,35.40
2015,12,12,03,21,33.80
2015,12,12,03,22,35.40
2015,12,12,03,23,30.60
2015,12,12,03,24,30.60
2015,12,12,03,25,37.00
2015,12,12,03,26,30.60
2015,12,12,03,27,33.80
2015,12,12,03,28,33.80
2015,12,12,03,29,29.00
2015,12,12,03,30,29.00
2015,12,12,03,31,33.80
2015,12,12,03,32,29.00
2015,12,12,03,33,35.40
2015,12,12,03,34,25.70
2015,12,12,03,35,30.60
2015,12,12,03,36,29.00
2015,12,12,03,37,27.40
2015,12,12,03,38,29.00
2015,12,12,03,39,29.00
2015,12,12,03,40,35.40
2015,12,12,03,41,30.60
2015,12,12,03,42,29.00
2015,12,12,03,43,27.40
2015,12,12,03,44,33.80
2015,12,12,03,45,30.60
2015,12,12,03,46,29.00
2015,12,12,03,47,33.80
2015,12,12,03,48,30.60
2015,12,12,03,49,27.40
2015,12,12,03,50,33.80
2015,12,12,03,51,38.60
2015,12,12,03,52,37.00
2015,12,12,03,53,33.80
2015,12,12,03,54,33.80
2015,12,12,03,55,30.60
2015,12,12,03,56,33.80
2015,12,12,03,57,29.00
2015,12,12,03,58,22.50
2015,12,12,03,59,32.20
2015,12,12,04,00,33.80
2015,12,12,04,01,33.80
2015,12,12,04,02,33.80
2015,12,12,04,03,32.20
2015,12,12,04,04,32.20
2015,12,12,04,05,35.40
2015,12,12,04,06,25.70
2015,12,12,04,07,27.40
2015,12,12,04,08,22.50
2015,12,12,04,09,22.50
2015,12,12,04,10,29.00
2015,12,12,04,11,22.50
2015,12,12,04,12,22.50
2015,12,12,04,13,24.20
2015,12,12,04,14,24.20
2015,12,12,04,15,20.90
2015,12,12,04,16,20.90
2015,12,12,04,17,25.70
2015,12,12,04,18,27.40
2015,12,12,04,19,25.70
2015,12,12,04,20,29.00
2015,12,12,04,21,25.70
2015,12,12,04,22,27.40
2015,12,12,04,23,27.40
2015,12,12,04,24,32.20
2015,12,12,04,25,27.40
2015,12,12,04,26,29.00
2015,12,12,04,27,30.60
2015,12,12,04,28,33.80
2015,12,12,04,29,29.00
2015,12,12,04,30,27.40
2015,12,12,04,31,22.50
2015,12,12,04,32,30.60
2015,12,12,04,33,30.60
2015,12,12,04,34,27.40
2015,12,12,04,35,27.40
2015,12,12,04,36,27.40
2015,12,12,04,37,27.40
2015,12,12,04,38,25.70
2015,12,12,04,39,27.40
2015,12,12,04,40,24.20
2015,12,12,04,41,20.90
2015,12,12,04,42,27.40
2015,12,12,04,43,25.70
2015,12,12,04,44,25.70
2015,12,12,04,45,27.40
2015,12,12,04,46,25.70
2015,12,12,04,47,24.20
2015,12,12,04,48,27.40
2015,12,12,04,49,25.70
2015,12,12,04,50,24.20
2015,12,12,04,51,30.60
2015,12,12,04,52,32.20
2015,12,12,04,53,27.40
2015,12,12,04,54,25.70
2015,12,12,04,55,20.90
2015,12,12,04,56,29.00
2015,12,12,04,57,25.70
2015,12,12,04,58,25.70
2015,12,12,04,59,32.20
2015,12,12,05,00,32.20
2015,12,12,05,01,32.20
2015,12,12,05,02,30.60
2015,12,12,05,03,30.60
2015,12,12,05,04,32.20
2015,12,12,05,05,30.60
2015,12,12,05,06,30.60
2015,12,12,05,07,27.40
2015,12,12,05,08,33.80
2015,12,12,05,09,32.20
2015,12,12,05,10,30.60
2015,12,12,05,11,29.00
2015,12,12,05,12,30.60
2015,12,12,05,13,24.20
2015,12,12,05,14,24.20
2015,12,12,05,15,29.00
2015,12,12,05,16,29.00
2015,12,12,05,17,30.60
2015,12,12,05,18,35.40
2015,12,12,05,19,33.80
2015,12,12,05,20,27.40
2015,12,12,05,21,27.40
2015,12,12,05,22,25.70
2015,12,12,05,23,30.60
2015,12,12,05,24,30.60
2015,12,12,05,25,29.00
2015,12,12,05,26,29.00
2015,12,12,05,27,27.40
2015,12,12,05,28,30.60
2015,12,12,05,29,32.20
2015,12,12,05,30,33.80
2015,12,12,05,31,33.80
2015,12,12,05,32,37.00
2015,12,12,05,33,35.40
2015,12,12,05,34,32.20
2015,12,12,05,35,33.80
2015,12,12,05,36,30.60
2015,12,12,05,37,29.00
2015,12,12,05,38,27.40
2015,12,12,05,39,37.00
2015,12,12,05,40,33.80
2015,12,12,05,41,27.40
2015,12,12,05,42,27.40
2015,12,12,05,43,30.60
2015,12,12,05,44,38.60
2015,12,12,05,45,29.00
2015,12,12,05,46,30.60
2015,12,12,05,47,27.40
2015,12,12,05,48,35.40
2015,12,12,05,49,32.20
2015,12,12,05,50,25.70
2015,12,12,05,51,33.80
2015,12,12,05,52,30.60
2015,12,12,05,53,38.60
2015,12,12,05,54,37.00
2015,12,12,05,55,35.40
2015,12,12,05,56,37.00
2015,12,12,05,57,32.20
2015,12,12,05,58,33.80
2015,12,12,05,59,30.60
2015,12,12,06,00,30.60
2015,12,12,06,01,33.80
2015,12,12,06,02,43.50
2015,12,12,06,03,35.40
2015,12,12,06,04,35.40
2015,12,12,06,05,32.20
2015,12,12,06,06,32.20
2015,12,12,06,07,32.20
2015,12,12,06,08,35.40
2015,12,12,06,09,30.60
2015,12,12,06,10,38.60
2015,12,12,06,11,40.20
2015,12,12,06,12,33.80
2015,12,12,06,13,29.00
2015,12,12,06,14,37.00
2015,12,12,06,15,35.40
2015,12,12,06,16,32.20
2015,12,12,06,17,41.80
2015,12,12,06,18,37.00
2015,12,12,06,19,30.60
2015,12,12,06,20,27.40
2015,12,12,06,21,33.80
2015,12,12,06,22,37.00
2015,12,12,06,23,27.40
2015,12,12,06,24,33.80
2015,12,12,06,25,30.60
2015,12,12,06,26,35.40
2015,12,12,06,27,40.20
2015,12,12,06,28,40.20
2015,12,12,06,29,37.00
2015,12,12,06,30,37.00
2015,12,12,06,31,32.20
2015,12,12,06,32,27.40
2015,12,12,06,33,30.60
2015,12,12,06,34,32.20
2015,12,12,06,35,35.40
2015,12,12,06,36,30.60
2015,12,12,06,37,33.80
2015,12,12,06,38,30.60
2015,12,12,06,39,32.20
2015,12,12,06,40,35.40
2015,12,12,06,41,35.40
2015,12,12,06,42,33.80
2015,12,12,06,43,33.80
2015,12,12,06,44,30.60
2015,12,12,06,45,30.60
2015,12,12,06,46,29.00
2015,12,12,06,47,38.60
2015,12,12,06,48,35.40
2015,12,12,06,49,25.70
2015,12,12,06,50,22.50
2015,12,12,06,51,24.20
2015,12,12,06,52,27.40
2015,12,12,06,53,24.20
2015,12,12,06,54,24.20
2015,12,12,06,55,30.60
2015,12,12,06,56,29.00
2015,12,12,06,57,41.80
2015,12,12,06,58,35.40
2015,12,12,06,59,35.40
2015,12,12,07,00,33.80
2015,12,12,07,01,27.40
2015,12,12,07,02,38.60
2015,12,12,07,03,37.00
2015,12,12,07,04,38.60
2015,12,12,07,05,29.00
2015,12,12,07,06,38.60
2015,12,12,07,07,35.40
2015,12,12,07,08,37.00
2015,12,12,07,09,35.40
2015,12,12,07,10,32.20
2015,12,12,07,11,32.20
2015,12,12,07,12,30.60
2015,12,12,07,13,37.00
2015,12,12,07,14,37.00
2015,12,12,07,15,33.80
2015,12,12,07,16,48.30
2015,12,12,07,17,33.80
2015,12,12,07,18,37.00
2015,12,12,07,19,30.60
2015,12,12,07,20,33.80
2015,12,12,07,21,41.80
2015,12,12,07,22,32.20
2015,12,12,07,23,37.00
2015,12,12,07,24,38.60
2015,12,12,07,25,33.80
2015,12,12,07,26,30.60
2015,12,12,07,27,35.40
2015,12,12,07,28,29.00
2015,12,12,07,29,29.00
2015,12,12,07,30,33.80
2015,12,12,07,31,29.00
2015,12,12,07,32,29.00
2015,12,12,07,33,33.80
2015,12,12,07,34,29.00
2015,12,12,07,35,35.40
2015,12,12,07,36,33.80
2015,12,12,07,37,37.00
2015,12,12,07,38,29.00
2015,12,12,07,39,24.20
2015,12,12,07,40,30.60
2015,12,12,07,41,32.20
2015,12,12,07,42,32.20
2015,12,12,07,43,25.70
2015,12,12,07,44,33.80
2015,12,12,07,45,32.20
2015,12,12,07,46,25.70
2015,12,12,07,47,29.00
2015,12,12,07,48,27.40
2015,12,12,07,49,25.70
2015,12,12,07,50,20.90
2015,12,12,07,51,29.00
2015,12,12,07,52,22.50
2015,12,12,07,53,29.00
2015,12,12,07,54,24.20
2015,12,12,07,55,25.70
2015,12,12,07,56,25.70
2015,12,12,07,57,24.20
2015,12,12,07,58,27.40
2015,12,12,07,59,27.40
2015,12,12,08,00,25.70
2015,12,12,08,01,27.40
2015,12,12,08,02,22.50
2015,12,12,08,03,29.00
2015,12,12,08,04,25.70
2015,12,12,08,05,24.20
2015,12,12,08,06,22.50
2015,12,12,08,07,29.00
2015,12,12,08,08,33.80
2015,12,12,08,09,30.60
2015,12,12,08,10,24.20
2015,12,12,08,11,22.50
2015,12,12,08,12,25.70
2015,12,12,08,13,22.50
2015,12,12,08,14,24.20
2015,12,12,08,15,25.70
2015,12,12,08,16,33.80
2015,12,12,08,17,32.20
2015,12,12,08,18,35.40
2015,12,12,08,19,32.20
2015,12,12,08,20,25.70
2015,12,12,08,21,25.70
2015,12,12,08,22,40.20
2015,12,12,08,23,38.60
2015,12,12,08,24,40.20
2015,12,12,08,25,37.00
2015,12,12,08,26,32.20
2015,12,12,08,27,30.60
2015,12,12,08,28,29.00
2015,12,12,08,29,35.40
2015,12,12,08,30,35.40
2015,12,12,08,31,38.60
2015,12,12,08,32,37.00
2015,12,12,08,33,33.80
2015,12,12,08,34,30.60
2015,12,12,08,35,30.60
2015,12,12,08,36,35.40
2015,12,12,08,37,29.00
2015,12,12,08,38,37.00
2015,12,12,08,39,27.40
2015,12,12,08,40,27.40
2015,12,12,08,41,25.70
2015,12,12,08,42,38.60
2015,12,12,08,43,43.50
2015,12,12,08,44,38.60
2015,12,12,08,45,25.70
2015,12,12,08,46,33.80
2015,12,12,08,47,30.60
2015,12,12,08,48,30.60
2015,12,12,08,49,27.40
2015,12,12,08,50,33.80
2015,12,12,08,51,43.50
2015,12,12,08,52,38.60
2015,12,12,08,53,43.50
2015,12,12,08,54,37.00
2015,12,12,08,55,45.10
2015,12,12,08,56,37.00
2015,12,12,08,57,41.80
2015,12,12,08,58,37.00
2015,12,12,08,59,33.80
2015,12,12,09,00,33.80
2015,12,12,09,01,29.00
2015,12,12,09,02,35.40
2015,12,12,09,03,33.80
2015,12,12,09,04,29.00
2015,12,12,09,05,35.40
2015,12,12,09,06,29.00
2015,12,12,09,07,43.50
2015,12,12,09,08,45.10
2015,12,12,09,09,37.00
2015,12,12,09,10,33.80
2015,12,12,09,11,37.00
2015,12,12,09,12,41.80
2015,12,12,09,13,38.60
2015,12,12,09,14,38.60
2015,12,12,09,15,29.00
2015,12,12,09,16,37.00
2015,12,12,09,17,33.80
2015,12,12,09,18,24.20
2015,12,12,09,19,30.60
2015,12,12,09,20,24.20
2015,12,12,09,21,41.80
2015,12,12,09,22,33.80
2015,12,12,09,23,37.00
2015,12,12,09,24,43.50
2015,12,12,09,25,33.80
2015,12,12,09,26,35.40
2015,12,12,09,27,38.60
2015,12,12,09,28,37.00
2015,12,12,09,29,33.80
2015,12,12,09,30,43.50
2015,12,12,09,31,32.20
2015,12,12,09,32,37.00
2015,12,12,09,33,32.20
2015,12,12,09,34,33.80
2015,12,12,09,35,30.60
2015,12,12,09,36,35.40
2015,12,12,09,37,35.40
2015,12,12,09,38,37.00
2015,12,12,09,39,37.00
2015,12,12,09,40,33.80
2015,12,12,09,41,32.20
2015,12,12,09,42,29.00
2015,12,12,09,43,37.00
2015,12,12,09,44,40.20
2015,12,12,09,45,32.20
2015,12,12,09,46,29.00
2015,12,12,09,47,35.40
2015,12,12,09,48,27.40
2015,12,12,09,49,25.70
2015,12,12,09,50,24.20
2015,12,12,09,51,24.20
2015,12,12,09,52,20.90
2015,12,12,09,53,27.40
2015,12,12,09,54,25.70
2015,12,12,09,55,33.80
2015,12,12,09,56,30.60
2015,12,12,09,57,35.40
2015,12,12,09,58,27.40
2015,12,12,09,59,22.50
2015,12,12,10,00,25.70
2015,12,12,10,01,29.00
2015,12,12,10,02,29.00
2015,12,12,10,03,30.60
2015,12,12,10,04,25.70
2015,12,12,10,05,25.70
2015,12,12,10,06,33.80
2015,12,12,10,07,37.00
2015,12,12,10,08,37.00
2015,12,12,10,09,30.60
2015,12,12,10,10,24.20
2015,12,12,10,11,32.20
2015,12,12,10,12,27.40
2015,12,12,10,13,24.20
2015,12,12,10,14,35.40
2015,12,12,10,15,29.00
2015,12,12,10,16,29.00
2015,12,12,10,17,24.20
2015,12,12,10,18,30.60
2015,12,12,10,19,20.90
2015,12,12,10,20,27.40
2015,12,12,10,21,45.10
2015,12,12,10,22,41.80
2015,12,12,10,23,29.00
2015,12,12,10,24,29.00
2015,12,12,10,25,35.40
2015,12,12,10,26,33.80
2015,12,12,10,27,29.00
2015,12,12,10,28,27.40
2015,12,12,10,29,30.60
2015,12,12,10,30,33.80
2015,12,12,10,31,35.40
2015,12,12,10,32,38.60
2015,12,12,10,33,32.20
2015,12,12,10,34,29.00
2015,12,12,10,35,32.20
2015,12,12,10,36,33.80
2015,12,12,10,37,32.20
2015,12,12,10,38,41.80
2015,12,12,10,39,29.00
2015,12,12,10,40,25.70
2015,12,12,10,41,27.40
2015,12,12,10,42,25.70
2015,12,12,10,43,29.00
2015,12,12,10,44,30.60
2015,12,12,10,45,33.80
2015,12,12,10,46,29.00
2015,12,12,10,47,32.20
2015,12,12,10,48,38.60
2015,12,12,10,49,32.20
2015,12,12,10,50,29.00
2015,12,12,10,51,46.70
2015,12,12,10,52,33.80
2015,12,12,10,53,53.10
2015,12,12,10,54,37.00
2015,12,12,10,55,35.40
2015,12,12,10,56,32.20
2015,12,12,10,57,35.40
2015,12,12,10,58,45.10
2015,12,12,10,59,53.10
2015,12,12,11,00,40.20
2015,12,12,11,01,33.80
2015,12,12,11,02,35.40
2015,12,12,11,03,37.00
2015,12,12,11,04,45.10
2015,12,12,11,05,46.70
2015,12,12,11,06,41.80
2015,12,12,11,07,35.40
2015,12,12,11,08,35.40
2015,12,12,11,09,40.20
2015,12,12,11,10,35.40
2015,12,12,11,11,41.80
2015,12,12,11,12,53.10
2015,12,12,11,13,35.40
2015,12,12,11,14,37.00
2015,12,12,11,15,45.10
2015,12,12,11,16,66.00
2015,12,12,11,17,51.50
2015,12,12,11,18,43.50
2015,12,12,11,19,37.00
2015,12,12,11,20,43.50
2015,12,12,11,21,41.80
2015,12,12,11,22,33.80
2015,12,12,11,23,35.40
2015,12,12,11,24,38.60
2015,12,12,11,25,43.50
2015,12,12,11,26,48.30
2015,12,12,11,27,45.10
2015,12,12,11,28,59.50
2015,12,12,11,29,46.70
2015,12,12,11,30,45.10
2015,12,12,11,31,48.30
2015,12,12,11,32,37.00
2015,12,12,11,33,27.40
2015,12,12,11,34,33.80
2015,12,12,11,35,49.90
2015,12,12,11,36,32.20
2015,12,12,11,37,37.00
2015,12,12,11,38,35.40
2015,12,12,11,39,53.10
2015,12,12,11,40,54.70
2015,12,12,11,41,41.80
2015,12,12,11,42,43.50
2015,12,12,11,43,35.40
2015,12,12,11,44,46.70
2015,12,12,11,45,46.70
2015,12,12,11,46,29.00
2015,12,12,11,47,45.10
2015,12,12,11,48,48.30
2015,12,12,11,49,38.60
2015,12,12,11,50,27.40
2015,12,12,11,51,54.70
2015,12,12,11,52,51.50
2015,12,12,11,53,45.10
2015,12,12,11,54,37.00
2015,12,12,11,55,27.40
2015,12,12,11,56,40.20
2015,12,12,11,57,41.80
2015,12,12,11,58,43.50
2015,12,12,11,59,38.60
2015,12,12,12,00,43.50
2015,12,12,12,01,56.30
2015,12,12,12,02,53.10
2015,12,12,12,03,41.80
2015,12,12,12,04,37.00
2015,12,12,12,05,32.20
2015,12,12,12,06,56.30
2015,12,12,12,07,53.10
2015,12,12,12,08,53.10
2015,12,12,12,09,35.40
2015,12,12,12,10,38.60
2015,12,12,12,11,53.10
2015,12,12,12,12,43.50
2015,12,12,12,13,38.60
2015,12,12,12,14,38.60
2015,12,12,12,15,53.10
2015,12,12,12,16,41.80
2015,12,12,12,17,33.80
2015,12,12,12,18,38.60
2015,12,12,12,19,51.50
2015,12,12,12,20,45.10
2015,12,12,12,21,46.70
2015,12,12,12,22,49.90
2015,12,12,12,23,33.80
2015,12,12,12,24,35.40
2015,12,12,12,25,53.10
2015,12,12,12,26,53.10
2015,12,12,12,27,40.20
2015,12,12,12,28,41.80
2015,12,12,12,29,49.90
2015,12,12,12,30,53.10
2015,12,12,12,31,37.00
2015,12,12,12,32,46.70
2015,12,12,12,33,57.90
2015,12,12,12,34,45.10
2015,12,12,12,35,62.70
2015,12,12,12,36,53.10
2015,12,12,12,37,41.80
2015,12,12,12,38,43.50
2015,12,12,12,39,49.90
2015,12,12,12,40,48.30
2015,12,12,12,41,53.10
2015,12,12,12,42,62.70
2015,12,12,12,43,45.10
2015,12,12,12,44,41.80
2015,12,12,12,45,38.60
2015,12,12,12,46,38.60
2015,12,12,12,47,29.00
2015,12,12,12,48,40.20
2015,12,12,12,49,40.20
2015,12,12,12,50,32.20
2015,12,12,12,51,35.40
2015,12,12,12,52,38.60
2015,12,12,12,53,48.30
2015,12,12,12,54,40.20
2015,12,12,12,55,56.30
2015,12,12,12,56,56.30
2015,12,12,12,57,38.60
2015,12,12,12,58,37.00
2015,12,12,12,59,41.80
2015,12,12,13,00,41.80
2015,12,12,13,01,40.20
2015,12,12,13,02,41.80
2015,12,12,13,03,48.30
2015,12,12,13,04,43.50
2015,12,12,13,05,49.90
2015,12,12,13,06,53.10
2015,12,12,13,07,48.30
2015,12,12,13,08,57.90
2015,12,12,13,09,48.30
2015,12,12,13,10,43.50
2015,12,12,13,11,38.60
2015,12,12,13,12,53.10
2015,12,12,13,13,53.10
2015,12,12,13,14,49.90
2015,12,12,13,15,43.50
2015,12,12,13,16,57.90
2015,12,12,13,17,49.90
2015,12,12,13,18,45.10
2015,12,12,13,19,41.80
2015,12,12,13,20,57.90
2015,12,12,13,21,37.00
2015,12,12,13,22,32.20
2015,12,12,13,23,57.90
2015,12,12,13,24,43.50
2015,12,12,13,25,57.90
2015,12,12,13,26,43.50
2015,12,12,13,27,53.10
2015,12,12,13,28,49.90
2015,12,12,13,29,53.10
2015,12,12,13,30,67.60
2015,12,12,13,31,49.90
2015,12,12,13,32,45.10
2015,12,12,13,33,48.30
2015,12,12,13,34,54.70
2015,12,12,13,35,57.90
2015,12,12,13,36,53.10
2015,12,12,13,37,62.70
2015,12,12,13,38,67.60
2015,12,12,13,39,64.40
2015,12,12,13,40,45.10
2015,12,12,13,41,51.50
2015,12,12,13,42,53.10
2015,12,12,13,43,66.00
2015,12,12,13,44,45.10
2015,12,12,13,45,53.10
2015,12,12,13,46,51.50
2015,12,12,13,47,51.50
2015,12,12,13,48,57.90
2015,12,12,13,49,48.30
2015,12,12,13,50,46.70
2015,12,12,13,51,48.30
2015,12,12,13,52,48.30
2015,12,12,13,53,37.00
2015,12,12,13,54,37.00
2015,12,12,13,55,48.30
2015,12,12,13,56,64.40
2015,12,12,13,57,56.30
2015,12,12,13,58,43.50
2015,12,12,13,59,48.30
2015,12,12,14,00,45.10
2015,12,12,14,01,53.10
2015,12,12,14,02,56.30
2015,12,12,14,03,57.90
2015,12,12,14,04,45.10
2015,12,12,14,05,33.80
2015,12,12,14,06,56.30
2015,12,12,14,07,49.90
2015,12,12,14,08,43.50
2015,12,12,14,09,61.20
2015,12,12,14,10,57.90
2015,12,12,14,11,61.20
2015,12,12,14,12,77.30
2015,12,12,14,13,64.40
2015,12,12,14,14,49.90
2015,12,12,14,15,59.50
2015,12,12,14,16,51.50
2015,12,12,14,17,51.50
2015,12,12,14,18,43.50
2015,12,12,14,19,53.10
2015,12,12,14,20,53.10
2015,12,12,14,21,53.10
2015,12,12,14,22,45.10
2015,12,12,14,23,45.10
2015,12,12,14,24,48.30
2015,12,12,14,25,48.30
2015,12,12,14,26,53.10
2015,12,12,14,27,43.50
2015,12,12,14,28,48.30
2015,12,12,14,29,51.50
2015,12,12,14,30,51.50
2015,12,12,14,31,41.80
2015,12,12,14,32,54.70
2015,12,12,14,33,49.90
2015,12,12,14,34,66.00
2015,12,12,14,35,40.20
2015,12,12,14,36,46.70
2015,12,12,14,37,46.70
2015,12,12,14,38,56.30
2015,12,12,14,39,46.70
2015,12,12,14,40,41.80
2015,12,12,14,41,38.60
2015,12,12,14,42,37.00
2015,12,12,14,43,33.80
2015,12,12,14,44,49.90
2015,12,12,14,45,51.50
2015,12,12,14,46,69.20
2015,12,12,14,47,45.10
2015,12,12,14,48,57.90
2015,12,12,14,49,45.10
2015,12,12,14,50,51.50
2015,12,12,14,51,56.30
2015,12,12,14,52,54.70
2015,12,12,14,53,54.70
2015,12,12,14,54,49.90
2015,12,12,14,55,41.80
2015,12,12,14,56,25.70
2015,12,12,14,57,49.90
2015,12,12,14,58,53.10
2015,12,12,14,59,43.50
2015,12,12,15,00,35.40
2015,12,12,15,01,27.40
2015,12,12,15,02,24.20
2015,12,12,15,03,41.80
2015,12,12,15,04,46.70
2015,12,12,15,05,49.90
2015,12,12,15,06,49.90
2015,12,12,15,07,37.00
2015,12,12,15,08,30.60
2015,12,12,15,09,41.80
2015,12,12,15,10,25.70
2015,12,12,15,11,40.20
2015,12,12,15,12,30.60
2015,12,12,15,13,25.70
2015,12,12,15,14,33.80
2015,12,12,15,15,27.40
2015,12,12,15,16,43.50
2015,12,12,15,17,41.80
2015,12,12,15,18,51.50
2015,12,12,15,19,40.20
2015,12,12,15,20,37.00
2015,12,12,15,21,59.50
2015,12,12,15,22,48.30
2015,12,12,15,23,45.10
2015,12,12,15,24,32.20
2015,12,12,15,25,27.40
2015,12,12,15,26,49.90
2015,12,12,15,27,53.10
2015,12,12,15,28,46.70
2015,12,12,15,29,49.90
2015,12,12,15,30,45.10
2015,12,12,15,31,41.80
2015,12,12,15,32,38.60
2015,12,12,15,33,41.80
2015,12,12,15,34,45.10
2015,12,12,15,35,38.60
2015,12,12,15,36,43.50
2015,12,12,15,37,35.40
2015,12,12,15,38,41.80
2015,12,12,15,39,35.40
2015,12,12,15,40,45.10
2015,12,12,15,41,49.90
2015,12,12,15,42,62.70
2015,12,12,15,43,37.00
2015,12,12,15,44,40.20
2015,12,12,15,45,43.50
2015,12,12,15,46,43.50
2015,12,12,15,47,61.20
2015,12,12,15,48,49.90
2015,12,12,15,49,45.10
2015,12,12,15,50,38.60
2015,12,12,15,51,38.60
2015,12,12,15,52,46.70
2015,12,12,15,53,46.70
2015,12,12,15,54,41.80
2015,12,12,15,55,33.80
2015,12,12,15,56,51.50
2015,12,12,15,57,53.10
2015,12,12,15,58,48.30
2015,12,12,15,59,43.50
2015,12,12,16,00,40.20
2015,12,12,16,01,40.20
2015,12,12,16,02,51.50
2015,12,12,16,03,53.10
2015,12,12,16,04,59.50
2015,12,12,16,05,49.90
2015,12,12,16,06,56.30
2015,12,12,16,07,41.80
2015,12,12,16,08,40.20
2015,12,12,16,09,32.20
2015,12,12,16,10,41.80
2015,12,12,16,11,38.60
2015,12,12,16,12,32.20
2015,12,12,16,13,46.70
2015,12,12,16,14,40.20
2015,12,12,16,15,30.60
2015,12,12,16,16,30.60
2015,12,12,16,17,43.50
2015,12,12,16,18,30.60
2015,12,12,16,19,37.00
2015,12,12,16,20,35.40
2015,12,12,16,21,45.10
2015,12,12,16,22,45.10
2015,12,12,16,23,40.20
2015,12,12,16,24,38.60
2015,12,12,16,25,40.20
2015,12,12,16,26,29.00
2015,12,12,16,27,37.00
2015,12,12,16,28,40.20
2015,12,12,16,29,41.80
2015,12,12,16,30,41.80
2015,12,12,16,31,43.50
2015,12,12,16,32,45.10
2015,12,12,16,33,35.40
2015,12,12,16,34,46.70
2015,12,12,16,35,32.20
2015,12,12,16,36,37.00
2015,12,12,16,37,38.60
2015,12,12,16,38,32.20
2015,12,12,16,39,20.90
2015,12,12,16,40,29.00
2015,12,12,16,41,35.40
2015,12,12,16,42,27.40
2015,12,12,16,43,24.20
2015,12,12,16,44,25.70
2015,12,12,16,45,41.80
2015,12,12,16,46,29.00
2015,12,12,16,47,38.60
2015,12,12,16,48,35.40
2015,12,12,16,49,29.00
2015,12,12,16,50,32.20
2015,12,12,16,51,32.20
2015,12,12,16,52,32.20
2015,12,12,16,53,32.20
2015,12,12,16,54,32.20
2015,12,12,16,55,33.80
2015,12,12,16,56,27.40
2015,12,12,16,57,24.20
2015,12,12,16,58,24.20
2015,12,12,16,59,29.00
2015,12,12,17,00,29.00
2015,12,12,17,01,29.00
2015,12,12,17,02,25.70
2015,12,12,17,03,22.50
2015,12,12,17,04,25.70
2015,12,12,17,05,27.40
2015,12,12,17,06,24.20
2015,12,12,17,07,24.20
2015,12,12,17,08,24.20
2015,12,12,17,09,35.40
2015,12,12,17,10,27.40
2015,12,12,17,11,29.00
2015,12,12,17,12,25.70
2015,12,12,17,13,30.60
2015,12,12,17,14,25.70
2015,12,12,17,15,24.20
2015,12,12,17,16,33.80
2015,12,12,17,17,24.20
2015,12,12,17,18,30.60
2015,12,12,17,19,25.70
2015,12,12,17,20,19.30
2015,12,12,17,21,25.70
2015,12,12,17,22,19.30
2015,12,12,17,23,32.20
2015,12,12,17,24,38.60
2015,12,12,17,25,27.40
2015,12,12,17,26,29.00
2015,12,12,17,27,27.40
2015,12,12,17,28,24.20
2015,12,12,17,29,27.40
2015,12,12,17,30,29.00
2015,12,12,17,31,25.70
2015,12,12,17,32,30.60
2015,12,12,17,33,30.60
2015,12,12,17,34,27.40